{"data":{"norad_id":38953,"epoch":"2026-05-24T21:17:54.320928Z","epoch_age_seconds":85015,"freshness":"FRESH","line1":"1 38953U 12059A   26144.88743427 -.00000177  00000+0  00000+0 0  9999","line2":"2 38953   4.3652  73.7690 0010314 321.9338 250.2757  1.00269634 49675","mean_motion":1.00269634,"eccentricity":0.0010314,"inclination_deg":4.3652,"raan_deg":73.769,"arg_perigee_deg":321.9338,"mean_anomaly_deg":250.2757,"bstar":0,"rev_number":4967,"period_min":1436.1277114066,"perigee_km":35743.70864886,"apogee_km":35830.687301848,"semimajor_km":42165.334975354,"source":"CELESTRAK","updated_at":"2026-05-25T13:38:24.212795Z"}}